Regional Weather Roundup
Issued by NWS

Home | Current Version | Previous Version | Text Only | Print | Product List | Glossary Off
Versions: 1 2 3 4 5 6 7 8 9 10 11 12 13 14 15 16 17 18 19 20 21 22 23 24 25 26 27 28 29 30 31 32 33 34 35 36 37 38 39 40 41 42 43 44 45 46 47 48 49 50

000
ASUS45 KPSR 281400
RWRAZ

PRELIMINARY ARIZONA REGIONAL HOURLY WEATHER ROUNDUP
NATIONAL WEATHER SERVICE PHOENIX AZ
700 AM MST MON JUL 28 2014

NOTE: FAIR INDICATES FEW OR NO CLOUDS BELOW 12,000 FEET WITH NO
SIGNIFICANT WEATHER AND/OR OBSTRUCTIONS TO VISIBILITY.

AZZ001>003-036-281500-
NORTHWEST ARIZONA

CITY           SKY/WX    TMP DP  RH WIND       PRES   REMARKS
KINGMAN        MOSUNNY   77  54  44 SE10      30.17R
$$

AZZ004>008-015-016-018-281500-
NORTH CENTRAL ARIZONA

CITY           SKY/WX    TMP DP  RH WIND       PRES   REMARKS
GRAND CANYON   MOSUNNY   57  55  93 CALM      30.43R
WILLIAMS       MOSUNNY   57  54  88 CALM      30.48R
PRESCOTT       PTSUNNY   69  55  60 CALM      30.30R
FLAGSTAFF      CLOUDY    59  54  83 CALM      30.45R
PAGE           PTSUNNY   76  55  48 SW5       30.26R
$$

AZZ009>014-017-281500-
NORTHEAST ARIZONA

CITY           SKY/WX    TMP DP  RH WIND       PRES   REMARKS
WINSLOW        NOT AVBL
SAINT JOHNS    CLOUDY    65  58  78 SE3       30.35R
WINDOW ROCK    CLOUDY    65  52  62 SE3       30.46F
$$

AZZ023-281500-
GREATER PHOENIX AREA

CITY           SKY/WX    TMP DP  RH WIND       PRES   REMARKS
PHOENIX        PTSUNNY   87  61  41 E9        30.02R
GLENDALE       PTSUNNY   86  63  45 CALM      30.04R
DEER VALLEY    PTSUNNY   83  63  50 NE5       30.05R
SCOTTSDALE     PTSUNNY   85  63  47 CALM      30.06R
MESA-GATEWAY   MOSUNNY   82  64  54 E6        30.07R
CHANDLER       PTSUNNY   84  63  48 E7        30.04R
$$

AZZ027-028-281500-
SOUTHWEST MARICOPA COUNTY AND PINAL COUNTY

CITY           SKY/WX    TMP DP  RH WIND       PRES   REMARKS
CASA GRANDE    MOSUNNY   82  61  47 E7        30.06R
GILA BEND      PTSUNNY   84  70  61 CALM      30.01
$$

AZZ503-504-507>509-281500-
SOUTHEAST ARIZONA

CITY           SKY/WX    TMP DP  RH WIND       PRES   REMARKS
TUCSON         PTSUNNY   79  63  57 S8        30.17R
DAVIS-MONTHAN  PTSUNNY   76  65  68 SE14      30.15R
RYAN FIELD       N/A     77  66  69 E12       30.14R
NOGALES        MOSUNNY   70  62  76 NE7       30.24R
SIERRA VISTA   PTSUNNY   66  63  88 S3        30.30R
SAFFORD        PTSUNNY   71  67  87 SW5       30.19R
$$

AZZ020-021-025-026-031-281500-
SOUTHWEST ARIZONA

CITY           SKY/WX    TMP DP  RH WIND       PRES   REMARKS
YUMA           PTSUNNY   86  62  44 S6        29.94R
$$

CAZ031-033-041-043-047-048-061-281500-
SOUTHERN CALIFORNIA

CITY           SKY/WX    TMP DP  RH WIND       PRES   REMARKS
DOWNTOWN L.A.  CLOUDY    70  63  78 CALM      30.03S
L.A. AIRPORT   CLOUDY    69  64  84 CALM      30.04S
SAN DIEGO      MOSUNNY   72  66  81 CALM      30.05R
BURBANK        CLOUDY    71  59  65 CALM      30.05R
ONTARIO        CLOUDY    75  48  38 N5        30.06S
RIVERSIDE      CLOUDY    72  58  61 NE3       30.07R
PALM SPRINGS   MOSUNNY   88  59  37 CALM      29.97R
EL CENTRO NAS  PTSUNNY   87  60  40 CALM      29.92R
IMPERIAL       PTSUNNY   85  62  46 CALM      29.91R
BLYTHE           N/A    N/A N/A N/A MISG      29.95R
$$

NVZ020-UTZ003-281500-
SOUTHERN NEVADA-UTAH

CITY           SKY/WX    TMP DP  RH WIND       PRES   REMARKS
LAS VEGAS      NOT AVBL
SALT LAKE CITY PTSUNNY   80  48  32 S9        30.18R
$$

NMZ009-TXZ055-281500-
NEW MEXICO-WEST TEXAS

CITY           SKY/WX    TMP DP  RH WIND       PRES   REMARKS
ALBUQUERQUE    CLOUDY    72  53  51 E14       30.40R
EL PASO        CLOUDY    75  62  64 N15       30.27R
$$


........................KEY........................
SKY/WX - SKY CONDITION/WEATHER
TMP    - TEMPERATURE IN FAHRENHEIT
DP     - DEW POINT IN FAHRENHEIT
RH     - RELATIVE HUMIDITY IN PERCENT
WIND   - DIRECTION AND SPEED IN MILES PER HOUR (MPH)
VRB    - VARIABLE WIND DIRECTION
PRES   - MEAN SEA LEVEL PRESSURE IN INCHES OF MERCURY
         F - FALLING PRESSURE   R - RISING PRESSURE
         S - STEADY PRESSURE
VSB    - VISIBILITY IN MILES
HX     - HEAT INDEX IN FAHRENHEIT
WCI    - WIND CHILL INDEX IN FAHRENHEIT
TC     - TEMPERATURE IN CELSIUS WHICH IS ALSO KNOWN AS
         TEMPERATURE IN CENTIGRADE
AFB    - AIR FORCE BASE
         LUKE AFB IS LUKE AIR FORCE BASE
         DAVIS-MONTHAN IS DAVIS-MONTHAN AIR FORCE BASE
NAS    - NAVAL AIR STATION
         EL CENTRO NAS IS EL CENTRO NAVAL AIR STATION
N/A    - NOT AVAILABLE


USA.gov is the U.S. government's official web portal to all federal, state and local government web resources and services.